[[{"header":{"parameterUnit":"m.s-1","parameterCategory":1,"la1":30.2991,"la2":30.254,"lo1":-89.0895,"lo2":-89.0444,"dy":0.0017,"dx":0.0017,"nx":28,"ny":28,"refTime":"2025-08-23T21:00:00:Z","depth":0,"parameterNumber":2,"parameterNumberName":"U-component_of_WINDS"},"data":[0,0,0,0,0,0,0,0,0,0,0,0,0,0,0,0,0,0,0,0,0,0,0,0,0,0,0,0,0,0,0,0,0,0,0,0,0,0,0,0,0,0,0,0,0,0,0,0,0,0,0,0,0,0,0,0,0,0,1.7799,1.7797,0,1.7637,1.7635,1.7633,1.7417,1.7413,1.741,1.7407,1.724,1.7239,1.7238,0,0,0,0,0,0,0,0,0,0,0,0,0,1.7925,1.7924,1.7799,1.7797,1.7795,1.7637,1.7635,1.7632,1.7418,1.7413,1.7409,1.7405,1.7241,1.7239,1.7238,0,0,0,0,0,0,0,0,0,0,0,0,0,1.7828,1.7923,1.7799,1.7669,1.7655,1.7637,1.7635,1.7632,1.7419,1.7413,1.7408,1.7403,1.7241,1.7239,1.7238,1.7335,0,0,1.7233,1.7232,0,0,0,0,0,0,0,0,1.7833,1.7823,1.769,1.7678,1.7663,1.7542,1.7618,1.7532,1.742,1.7509,1.7406,1.74,1.7345,1.7334,1.7316,1.7327,1.732,1.7233,1.7232,1.7231,1.723,0,0,0,0,0,0,0,1.784,1.7829,1.7735,1.7688,1.7672,1.7619,1.7599,1.7601,1.7459,1.75,1.7484,1.7468,1.7336,1.7318,1.731,1.7317,1.7233,1.7231,1.723,1.723,1.7403,1.7409,0,0,0,0,0,0,1.7866,1.7836,1.774,1.773,1.7737,1.7621,1.7599,1.7586,1.7458,1.7433,1.7473,1.7459,1.7323,1.7312,1.7303,1.7409,1.7231,1.7229,1.7228,1.7398,1.7405,1.7411,0,0,0,0,0,0,1.787,1.786,1.7746,1.7778,1.776,1.7625,1.7612,1.7586,1.7566,1.7437,1.7411,1.748,1.7319,1.7306,1.7329,1.7401,1.7229,1.7227,1.7391,1.74,1.7408,1.7623,0,0,0,0,0,0,1.7875,1.7862,1.7897,1.7781,1.7759,1.7775,1.7616,1.7586,1.7564,1.7544,1.7437,1.7414,1.7313,1.7333,1.7328,1.7395,1.7226,1.7384,1.7395,1.7405,1.7609,1.7637,1.7662,0,0,0,0,0,1.788,1.7963,1.79,1.7889,1.7799,1.7779,1.7767,1.7649,1.7571,1.7605,1.7523,1.7417,1.7395,1.7337,1.7329,1.7398,1.7379,1.7392,1.7404,1.7597,1.7632,1.7662,0,0,0,0,0,0,1.809,1.7945,1.7873,1.7922,1.7865,1.7743,1.7781,1.769,1.7653,1.7636,1.7493,1.747,1.7512,1.7457,1.7396,1.7487,1.7371,1.7383,1.752,1.7553,1.7579,1.759,1.7224,0,0,0,0,0,1.8142,1.8137,1.8011,1.8066,1.8042,1.7918,1.7904,1.782,1.7754,1.7729,1.7648,1.7589,1.7568,1.7558,1.7531,1.7601,1.7575,1.7644,1.7671,1.7694,1.7705,1.774,1.777,1.7452,1.7452,1.7452,0,0,1.8249,1.817,1.8175,1.8107,1.8052,1.8052,1.7898,1.7903,1.7901,1.7729,1.7746,1.7686,1.7611,1.7659,1.7676,1.7614,1.7788,1.771,1.7729,1.7727,1.7756,1.7786,1.7813,1.7461,1.7459,1.7458,0,0,1.8443,1.8383,1.8422,1.8373,1.8293,1.8211,1.8221,1.8114,1.8068,1.8083,1.7955,1.7952,1.7919,1.7872,1.7843,1.8027,1.7929,1.8022,1.8161,1.8197,1.8222,1.8243,1.8309,1.8335,1.8034,1.8035,1.8035,0,1.8586,1.8579,1.8455,1.8468,1.8443,1.829,1.833,1.8287,1.8204,1.819,1.8124,1.8082,1.802,1.8056,1.8101,1.8083,1.8091,1.8032,1.8229,1.8249,1.8267,1.8328,1.8353,1.8047,1.8045,1.8044,1.8043,0,1.8759,1.8757,1.8799,1.8723,1.8703,1.873,1.8612,1.8606,1.8526,1.8451,1.8471,1.8393,1.835,1.8352,1.8272,1.8378,1.8342,1.8255,1.8135,1.8311,1.8366,1.8389,1.8064,1.806,1.8056,1.8053,0,0,1.9075,1.8935,1.8953,1.8918,1.8822,1.8818,1.884,1.8799,1.8798,1.8747,1.8762,1.8741,1.866,1.8629,1.8543,1.8575,1.8726,1.8482,1.8478,1.853,1.8839,1.8905,1.8934,1.8662,1.8666,1.8669,1.8846,0,1.9251,1.9279,1.9171,1.9228,1.9225,1.9083,1.9102,1.9047,1.898,1.8968,1.8894,1.8881,1.8775,1.8756,1.8781,1.8703,1.8786,1.8689,1.8675,1.8676,1.8697,1.8963,1.9031,1.9201,1.8866,1.887,1.8872,0,1.9457,1.942,1.9477,1.9381,1.9376,1.9395,1.9351,1.9342,1.9277,1.9226,1.9195,1.9096,1.9113,1.9002,1.9023,1.8959,1.8948,1.891,1.8914,1.8906,1.8784,1.8962,1.9252,1.9278,1.8905,1.8902,1.89,0,1.9683,1.9647,1.9677,1.9652,1.954,1.9558,1.9513,1.9442,1.9426,1.9388,1.9376,1.9341,1.9321,1.9297,1.9192,1.9121,1.9227,1.9106,1.9186,1.9189,1.9212,1.9211,1.9504,1.9208,1.9208,1.9207,1.9207,0,1.9888,1.9929,1.9777,1.9795,1.9838,1.9715,1.9761,1.9701,1.9642,1.9647,1.9522,1.953,1.9393,1.9386,1.9305,1.9337,1.9329,1.9289,1.9266,1.9299,1.9304,1.9288,1.9273,1.9214,1.9212,1.9211,1.921,0,2.0145,2.0045,2.0069,1.9964,1.9938,1.9975,1.9885,1.9898,1.9826,1.9835,1.983,1.9715,1.9702,1.9597,1.9559,1.9504,1.9566,1.9521,1.9588,1.9573,1.9658,1.9652,1.9949,1.9982,1.9667,1.967,1.9673,0,2.0282,2.031,2.021,2.0205,2.0166,2.016,2.0143,2.0025,2.0013,1.9945,1.9967,1.9944,1.9918,1.9904,1.9818,1.979,1.9743,1.9849,1.9737,1.977,1.9744,1.9743,1.9746,1.9872,1.9876,1.988,1.9882,0,2.0535,2.0486,2.0466,2.0432,2.0417,2.0383,2.0342,2.0346,2.0216,2.021,2.0195,2.0176,2.014,2.0118,2.0076,2.003,1.9936,1.9919,1.9936,1.9968,2.0006,1.9987,1.9652,1.9912,1.9909,1.9907,1.9905,1.9904,2.0735,2.0755,2.0688,2.0672,2.063,2.0596,2.0605,2.0535,2.0521,2.0482,2.0414,2.0411,2.0349,2.0282,2.0245,2.0241,2.0185,2.0209,2.0215,2.0223,2.024,2.0009,2.0233,2.0232,2.0231,2.023,2.0229,0,2.0981,2.0933,2.092,2.0868,2.0857,2.0772,2.0724,2.072,2.0718,2.0669,2.0648,2.0634,2.0614,2.0529,2.0501,2.0514,2.0471,2.0511,2.0507,2.0499,2.0292,2.028,2.0547,2.0547,2.0547,2.0547,2.0547,2.0547,2.1108,2.1137,2.1082,2.109,2.1041,2.1037,2.1017,2.0986,2.0947,2.0936,2.092,2.0866,2.0803,2.077,2.0749,2.0724,2.072,2.0775,2.0736,2.0544,2.0513,2.0484,2.0472,2.0775,2.0775,2.0943,2.0945,2.0946]},{"header":{"parameterUnit":"m.s-1","parameterCategory":1,"la1":30.2991,"la2":30.254,"lo1":-89.0895,"lo2":-89.0444,"dy":0.0017,"dx":0.0017,"nx":28,"ny":28,"refTime":"2025-08-23T21:00:00:Z","depth":0,"parameterNumber":3,"parameterNumberName":"V-component_of_WINDS"},"data":[0,0,0,0,0,0,0,0,0,0,0,0,0,0,0,0,0,0,0,0,0,0,0,0,0,0,0,0,0,0,0,0,0,0,0,0,0,0,0,0,0,0,0,0,0,0,0,0,0,0,0,0,0,0,0,0,0,0,-0.3835,-0.3833,0,-0.3617,-0.3615,-0.3612,-0.3514,-0.3514,-0.3515,-0.3515,-0.3277,-0.327,-0.3264,0,0,0,0,0,0,0,0,0,0,0,0,0,-0.4149,-0.4144,-0.3835,-0.3832,-0.383,-0.3618,-0.3615,-0.3612,-0.3514,-0.3514,-0.3515,-0.3515,-0.3279,-0.3271,-0.3263,0,0,0,0,0,0,0,0,0,0,0,0,0,-0.398,-0.4143,-0.3836,-0.3756,-0.3746,-0.3618,-0.3615,-0.3611,-0.3514,-0.3514,-0.3515,-0.3515,-0.3282,-0.3272,-0.3262,-0.3193,0,0,-0.3232,-0.3228,0,0,0,0,0,0,0,0,-0.399,-0.3969,-0.377,-0.3761,-0.375,-0.3594,-0.3638,-0.347,-0.3514,-0.3602,-0.3515,-0.3515,-0.3381,-0.3363,-0.3321,-0.3182,-0.3171,-0.3231,-0.3225,-0.3221,-0.3218,0,0,0,0,0,0,0,-0.4002,-0.3977,-0.3748,-0.3767,-0.3755,-0.3725,-0.3702,-0.3606,-0.3491,-0.3594,-0.3586,-0.3563,-0.3375,-0.333,-0.3314,-0.3168,-0.3231,-0.3223,-0.3217,-0.3213,-0.2957,-0.2956,0,0,0,0,0,0,-0.4029,-0.3988,-0.3755,-0.3742,-0.3874,-0.3719,-0.3693,-0.3643,-0.3492,-0.347,-0.3563,-0.3559,-0.3347,-0.3326,-0.3306,-0.3212,-0.3221,-0.3212,-0.3206,-0.2958,-0.2957,-0.2956,0,0,0,0,0,0,-0.4036,-0.4009,-0.3764,-0.3863,-0.3829,-0.3714,-0.3658,-0.3639,-0.3594,-0.3469,-0.3446,-0.3539,-0.3347,-0.3319,-0.3222,-0.3203,-0.3207,-0.3198,-0.2959,-0.2957,-0.2956,-0.3027,0,0,0,0,0,0,-0.4045,-0.4012,-0.3989,-0.3863,-0.3825,-0.3689,-0.3657,-0.3634,-0.3579,-0.3572,-0.344,-0.3419,-0.3345,-0.3237,-0.3212,-0.3189,-0.3191,-0.296,-0.2958,-0.2956,-0.3025,-0.3028,-0.303,0,0,0,0,0,-0.4057,-0.4015,-0.3988,-0.396,-0.3794,-0.3689,-0.3666,-0.3586,-0.3578,-0.355,-0.3469,-0.3423,-0.3209,-0.3228,-0.3199,-0.3173,-0.296,-0.2958,-0.2957,-0.3024,-0.3027,-0.303,0,0,0,0,0,0,-0.4136,-0.3997,-0.3966,-0.3883,-0.3799,-0.3672,-0.3635,-0.3592,-0.3505,-0.3502,-0.3402,-0.3373,-0.3283,-0.3217,-0.3241,-0.3095,-0.308,-0.3072,-0.3142,-0.3144,-0.3146,-0.3162,-0.3182,0,0,0,0,0,-0.4145,-0.4076,-0.3956,-0.3893,-0.3854,-0.3752,-0.3703,-0.365,-0.3556,-0.3519,-0.3431,-0.3338,-0.3249,-0.3193,-0.3105,-0.3016,-0.2983,-0.2983,-0.2985,-0.2988,-0.2981,-0.2926,-0.2923,-0.2949,-0.2949,-0.2949,0,0,-0.4159,-0.4075,-0.4037,-0.3907,-0.3836,-0.3762,-0.3723,-0.3646,-0.3589,-0.3505,-0.3409,-0.3341,-0.323,-0.3136,-0.309,-0.3079,-0.2967,-0.2985,-0.2988,-0.298,-0.2924,-0.2921,-0.2919,-0.2948,-0.2948,-0.2948,0,0,-0.4149,-0.4081,-0.4021,-0.3951,-0.3845,-0.3777,-0.3763,-0.3643,-0.3596,-0.3498,-0.3433,-0.336,-0.3211,-0.3134,-0.3076,-0.3035,-0.2988,-0.3009,-0.302,-0.2967,-0.2965,-0.2963,-0.2945,-0.2941,-0.3003,-0.3003,-0.3003,0,-0.418,-0.4072,-0.3994,-0.3921,-0.3864,-0.379,-0.3725,-0.3659,-0.3528,-0.3487,-0.3478,-0.3288,-0.3208,-0.3094,-0.3084,-0.304,-0.3016,-0.3023,-0.2973,-0.2969,-0.2966,-0.2948,-0.2942,-0.3007,-0.3006,-0.3006,-0.3006,0,-0.4114,-0.4039,-0.4002,-0.3883,-0.3821,-0.3753,-0.3659,-0.3605,-0.3556,-0.3488,-0.3386,-0.3288,-0.3178,-0.3147,-0.3097,-0.3024,-0.302,-0.2993,-0.2975,-0.2968,-0.2949,-0.2942,-0.3011,-0.301,-0.3009,-0.3008,0,0,-0.4147,-0.3986,-0.3973,-0.3917,-0.3794,-0.3732,-0.3658,-0.3555,-0.3509,-0.342,-0.3352,-0.3227,-0.3201,-0.3135,-0.3074,-0.3028,-0.2999,-0.3006,-0.3001,-0.3006,-0.2908,-0.2929,-0.2923,-0.2967,-0.2966,-0.2965,-0.2917,0,-0.4119,-0.399,-0.3916,-0.3814,-0.3742,-0.3669,-0.3604,-0.3518,-0.3452,-0.3376,-0.33,-0.3213,-0.3187,-0.3146,-0.3097,-0.3013,-0.2978,-0.3016,-0.2898,-0.2895,-0.2927,-0.2913,-0.2934,-0.2895,-0.2909,-0.2908,-0.2907,0,-0.4069,-0.3987,-0.388,-0.3764,-0.373,-0.3674,-0.3572,-0.3502,-0.3401,-0.3355,-0.3282,-0.3222,-0.3135,-0.3126,-0.3002,-0.3029,-0.2976,-0.2927,-0.2923,-0.2908,-0.29,-0.2895,-0.288,-0.2874,-0.2895,-0.2896,-0.2897,0,-0.4102,-0.3964,-0.3881,-0.3835,-0.3698,-0.366,-0.3599,-0.35,-0.3442,-0.335,-0.3311,-0.3209,-0.3153,-0.3073,-0.2985,-0.2987,-0.2868,-0.2852,-0.2823,-0.2825,-0.28,-0.2803,-0.2775,-0.277,-0.277,-0.277,-0.277,0,-0.4078,-0.4014,-0.3894,-0.3843,-0.3768,-0.3681,-0.3607,-0.354,-0.3452,-0.3382,-0.3312,-0.3246,-0.3136,-0.3055,-0.2985,-0.2891,-0.2866,-0.2823,-0.2805,-0.2829,-0.2834,-0.2791,-0.2791,-0.2768,-0.2769,-0.2769,-0.277,0,-0.4102,-0.402,-0.3924,-0.3803,-0.3771,-0.3721,-0.3614,-0.3558,-0.3489,-0.3401,-0.3375,-0.3263,-0.3165,-0.307,-0.2936,-0.2889,-0.2794,-0.2771,-0.283,-0.282,-0.2796,-0.2798,-0.2738,-0.2723,-0.2731,-0.2731,-0.2731,0,-0.4091,-0.4041,-0.3916,-0.3867,-0.381,-0.3731,-0.3672,-0.3583,-0.3524,-0.3404,-0.3362,-0.3259,-0.3172,-0.3017,-0.292,-0.2816,-0.2789,-0.2775,-0.2772,-0.2797,-0.2785,-0.2789,-0.2781,-0.2776,-0.2777,-0.2777,-0.2777,0,-0.408,-0.4042,-0.3963,-0.3869,-0.3802,-0.3723,-0.364,-0.3602,-0.3495,-0.3431,-0.3332,-0.3265,-0.313,-0.3027,-0.2912,-0.2843,-0.279,-0.2779,-0.2766,-0.2789,-0.2824,-0.2802,-0.2834,-0.278,-0.278,-0.278,-0.278,-0.278,-0.4084,-0.4036,-0.3941,-0.3854,-0.3783,-0.3707,-0.3649,-0.3573,-0.3491,-0.3378,-0.3328,-0.3227,-0.3122,-0.2964,-0.2895,-0.2811,-0.2798,-0.2781,-0.2776,-0.2772,-0.2776,-0.284,-0.279,-0.2789,-0.2789,-0.2789,-0.2789,0,-0.4068,-0.4003,-0.3925,-0.3813,-0.3744,-0.3706,-0.3611,-0.3554,-0.3468,-0.3378,-0.3294,-0.3178,-0.3077,-0.2973,-0.2865,-0.2817,-0.2789,-0.2791,-0.2792,-0.2776,-0.2795,-0.2816,-0.2815,-0.2815,-0.2815,-0.2815,-0.2815,-0.2815,-0.4052,-0.3967,-0.3917,-0.3794,-0.3727,-0.3632,-0.3581,-0.3508,-0.3436,-0.3311,-0.3229,-0.3163,-0.3065,-0.2949,-0.2853,-0.2824,-0.2786,-0.2794,-0.2758,-0.2777,-0.2775,-0.2774,-0.2793,-0.2787,-0.2787,-0.2746,-0.2745,-0.2745]}]]